This is the latest recevied weather packets stored in our database for station/object YF9UAG-15. If no packets are shown the sender has not sent any weather packets the latest 10 day(s).
| Time | Temp. | Humidity | Pressure | Rain* | Wind** | Luminosity | Snow |
|---|---|---|---|---|---|---|---|
| 1777600422 | 33.33° C | 80% | 1008.5 hPa | - | - | - | - |
| 1777600301 | 33.33° C | 80% | 1008.5 hPa | - | - | - | - |
| 1777600180 | 33.33° C | 80% | 1008.6 hPa | - | - | - | - |
| 1777600059 | 33.33° C | 81% | 1008.6 hPa | - | - | - | - |
| 1777599938 | 33.33° C | 81% | 1008.6 hPa | - | - | - | - |
| 1777599817 | 33.33° C | 81% | 1008.6 hPa | - | - | - | - |
| 1777599696 | 32.78° C | 81% | 1008.7 hPa | - | - | - | - |
| 1777599575 | 32.22° C | 82% | 1008.8 hPa | - | - | - | - |
| 1777599454 | 32.78° C | 80% | 1008.8 hPa | - | - | - | - |
| 1777599333 | 32.22° C | 82% | 1008.8 hPa | - | - | - | - |
| 1777599212 | 32.78° C | 83% | 1008.9 hPa | - | - | - | - |
| 1777599091 | 32.78° C | 80% | 1008.8 hPa | - | - | - | - |
| 1777598971 | 32.78° C | 83% | 1008.8 hPa | - | - | - | - |
| 1777598849 | 32.78° C | 84% | 1009 hPa | - | - | - | - |
| 1777598729 | 32.78° C | 85% | 1008.9 hPa | - | - | - | - |
| 1777598608 | 32.22° C | 84% | 1009.1 hPa | - | - | - | - |
| 1777598487 | 32.22° C | 85% | 1009.2 hPa | - | - | - | - |
| 1777598366 | 32.22° C | 85% | 1009.1 hPa | - | - | - | - |
| 1777598245 | 31.67° C | 87% | 1009.2 hPa | - | - | - | - |
| 1777598124 | 31.67° C | 88% | 1009.2 hPa | - | - | - | - |
| 1777598003 | 31.11° C | 90% | 1009.2 hPa | - | - | - | - |
| 1777597882 | 31.67° C | 86% | 1009.4 hPa | - | - | - | - |
| 1777597761 | 31.67° C | 87% | 1009.4 hPa | - | - | - | - |
| 1777597640 | 31.67° C | 90% | 1009.4 hPa | - | - | - | - |
| 1777597519 | 31.67° C | 90% | 1009.4 hPa | - | - | - | - |
* Rain since midnight (hover to see other rain measurements)
** Current wind speed in m/s (hover to see current wind gust speed)